Theta_e
289 291 291 290 289 289 287 287 283 285 286 289 292 292 293 297 303 302 301 301 300 300 301 302 302 303 303 303 303 303 302 301 301 301 302 302 301 300 300 299 299 300 299 298
287 292 292 288 290 289 289 289 288 287 286 293 294 294 294 295 300 300 301 301 301 301 301 301 301 302 303 303 303 304 303 302 303 302 302 302 302 301 300 300 300 300 299 299
282 289 289 284 288 288 287 289 288 282 286 290 292 293 294 293 295 298 301 302 302 301 301 301 302 303 302 303 304 303 303 303 303 301 300 299 300 300 298 298 297 296 296 297
282 284 277 286 291 292 289 289 290 289 290 292 292 293 294 293 291 297 301 303 302 301 301 302 303 303 303 304 304 304 303 303 303 302 300 299 297 296 297 296 295 294 295 295
280 279 284 289 292 291 288 287 292 291 292 293 293 293 293 298 296 300 297 302 302 303 303 303 303 304 304 303 304 303 303 303 305 304 302 302 299 299 297 296 295 295 296 295
281 281 275 286 294 296 292 281 292 293 292 292 293 285 288 296 297 297 298 301 302 303 303 303 303 304 303 303 303 302 304 304 304 306 303 302 301 300 298 297 297 297 297 297
283 282 285 292 297 297 282 283 292 295 294 292 290 291 292 296 295 297 297 301 303 301 302 300 303 304 303 302 301 304 306 306 305 304 304 302 300 298 297 297 297 296 297 297
285 282 281 297 297 289 291 292 295 295 295 294 295 295 295 296 295 297 298 300 301 303 303 304 304 301 300 299 303 305 304 305 304 303 303 303 299 298 298 297 296 296 295 296
286 285 292 298 295 299 295 295 296 295 296 297 296 296 296 295 295 297 298 299 300 300 298 298 299 299 299 300 303 302 303 300 301 301 299 299 297 297 296 296 296 296 296 295
290 294 294 297 299 299 299 298 299 298 298 299 297 297 296 296 295 296 298 297 298 298 297 297 299 299 299 300 301 299 297 296 297 298 298 299 299 297 297 296 295 295 295 294
291 296 297 299 300 301 301 303 300 300 299 299 299 297 298 297 297 298 298 298 298 297 297 298 299 300 299 300 299 296 296 296 297 297 298 297 298 301 299 298 298 297 296 295
292 298 298 299 302 304 302 302 302 299 299 299 300 299 299 299 299 299 298 299 298 298 298 299 299 299 299 298 298 297 295 296 296 296 297 297 297 298 296 295 294 293 295 296
299 301 301 303 305 305 303 303 302 302 301 298 299 301 301 299 300 301 300 299 299 299 300 300 299 298 299 298 297 297 296 296 297 297 300 297 296 296 295 297 293 294 293 293
301 301 300 303 301 305 304 304 304 303 302 300 299 301 301 301 301 301 301 301 302 301 301 301 300 299 300 299 298 298 297 297 297 297 298 297 296 297 296 295 295 297 294 293
298 301 300 302 303 302 303 302 301 300 300 298 298 299 300 300 299 301 303 302 301 300 301 300 300 300 301 301 300 299 297 297 300 299 297 297 296 296 296 296 297 298 294 292
296 298 300 299 300 301 302 300 299 299 299 298 298 298 300 302 302 302 300 300 298 298 299 299 300 302 302 302 301 300 300 300 298 300 302 299 297 296 295 294 294 295 295 296
295 293 295 297 298 299 301 302 300 300 300 300 300 301 302 301 301 299 299 299 301 300 301 300 300 302 303 302 301 302 304 304 296 297 298 298 298 295 295 291 291 292 293 295
300 299 298 297 298 299 301 303 302 301 300 302 302 303 303 300 300 301 302 302 299 299 300 300 302 302 303 303 302 302 302 301 298 298 298 296 294 293 292 291 291 291 291 292
299 299 298 300 300 300 302 302 302 303 303 303 302 301 302 303 302 302 302 301 300 299 301 302 301 301 301 302 301 300 299 298 297 295 295 292 293 293 293 292 292 291 291 291
296 297 298 299 300 301 301 304 303 304 304 303 304 302 300 301 302 302 301 300 302 304 305 303 302 302 302 302 297 300 300 301 300 298 295 294 293 292 290 289 292 291 290 290
296 297 297 299 299 301 302 304 305 302 304 304 303 302 300 300 302 302 298 299 302 304 304 300 302 304 303 300 298 299 299 298 297 296 295 292 290 291 291 290 289 289 291 291
296 297 298 299 300 300 301 302 306 305 305 304 304 304 302 301 301 301 301 300 301 291 303 303 302 296 298 291 299 299 298 298 297 297 295 292 290 288 289 289 290 290 289 289
296 297 298 300 303 302 302 302 305 306 304 304 304 304 303 302 300 299 300 303 302 295 302 304 296 291 291 297 301 300 298 297 295 295 293 292 290 290 290 290 290 289 289 289
296 298 301 304 305 304 303 303 305 306 306 306 305 305 302 299 299 302 305 297 291 294 301 298 294 288 288 302 300 299 297 295 293 292 291 289 290 290 289 289 287 288 289 289
296 297 301 302 300 300 301 303 304 304 305 303 304 304 304 303 301 298 301 298 289 293 294 289 288 289 295 295 295 293 292 291 291 290 289 288 287 286 286 289 289 287 284 283
294 296 298 296 295 295 298 297 295 295 300 296 294 296 301 298 297 295 294 291 292 290 290 290 290 290 289 289 289 288 288 287 286 285 285 285 285 285 284 284 283 282 282 281
293 292 294 294 294 293 292 293 291 290 291 292 290 291 291 291 289 289 288 288 287 287 287 286 287 286 286 286 285 285 285 285 285 285 285 285 284 283 282 281 281 281 280 279
Wind_Speed
6 7 4 4 4 5 5 4 5 5 5 5 6 5 5 5 4 2 1 2 4 4 3 5 6 7 8 9 9 6 8 8 8 7 7 5 9 8 8 5 4 5 4 4
4 6 7 5 6 7 5 4 6 5 8 7 5 4 6 4 4 3 4 4 3 4 6 6 6 5 7 8 7 7 6 7 5 5 5 5 4 7 4 5 4 5 3 2
5 3 3 6 9 9 4 5 6 5 9 3 6 7 6 5 4 6 5 6 6 5 4 5 6 6 4 5 6 6 4 4 5 5 7 6 5 6 6 6 4 3 2 2
4 3 2 8 2 4 8 5 9 5 6 7 7 5 4 3 3 7 4 5 6 5 4 4 2 4 4 4 4 5 4 4 4 5 4 6 6 6 4 3 4 3 4 5
4 5 5 4 5 8 9 9 10 9 8 5 4 4 5 6 4 5 3 5 5 5 4 4 4 4 4 4 3 3 6 6 7 7 5 5 5 5 5 3 3 4 3 4
3 4 6 9 3 6 5 7 8 10 9 7 6 1 6 7 5 6 6 5 5 5 4 5 4 4 4 4 6 6 6 7 5 5 6 6 5 5 2 2 4 2 5 6
3 6 8 6 8 5 5 11 5 9 8 8 6 7 4 7 5 6 6 6 5 6 5 5 5 5 5 5 7 8 6 5 5 6 6 6 5 3 4 5 5 5 6 5
2 3 8 7 4 8 10 4 7 8 7 7 7 5 5 7 6 6 7 6 6 6 6 5 5 5 7 7 10 6 6 6 6 7 6 5 6 4 5 5 5 6 5 5
9 9 6 13 7 11 6 6 7 8 7 9 8 8 7 7 7 8 7 6 5 5 5 5 5 6 7 10 5 6 5 4 5 5 5 5 6 6 4 5 4 5 4 4
1 5 7 7 7 6 9 9 8 8 8 9 8 9 9 7 7 7 7 7 5 6 6 7 6 6 8 6 5 4 6 5 4 6 5 5 4 4 4 4 4 5 5 5
5 6 5 9 8 9 9 9 5 7 9 12 10 9 11 9 9 9 8 7 6 7 7 9 6 7 6 6 4 4 4 4 4 3 6 5 4 5 5 6 6 5 5 4
4 10 11 12 7 8 11 11 11 10 8 8 12 11 11 10 10 10 10 8 7 8 7 9 7 7 7 6 7 7 5 5 5 5 5 4 4 4 7 10 9 11 8 6
6 15 18 20 17 8 12 14 12 13 12 9 9 10 12 9 11 12 9 9 10 12 11 9 7 7 7 7 7 8 7 6 4 5 4 4 4 4 5 4 8 7 9 10
13 15 9 8 9 10 12 12 9 9 9 10 11 8 9 11 7 11 12 14 12 10 10 10 9 10 9 9 9 9 8 9 5 5 5 5 5 5 4 4 4 5 7 7
19 15 11 13 10 8 6 4 7 9 10 8 8 12 11 10 11 13 13 10 10 10 10 8 8 11 9 9 11 10 7 6 6 5 5 6 5 5 4 5 5 6 2 2
19 19 18 17 16 15 12 8 8 9 8 8 9 9 13 13 13 13 7 7 7 10 11 10 11 13 8 9 10 7 8 13 9 6 6 5 5 5 5 5 5 5 4 7
10 17 19 18 17 19 17 14 12 12 9 9 13 12 9 10 7 7 7 7 10 10 9 10 13 10 8 8 9 8 7 8 9 5 5 6 6 6 6 5 5 6 7 8
9 8 6 10 16 15 15 13 9 6 9 13 8 8 9 9 12 12 11 8 7 7 8 10 10 8 9 10 10 8 7 7 6 8 7 5 5 5 5 5 6 6 5 3
15 11 14 12 13 14 13 10 8 9 6 5 5 7 7 7 7 7 6 7 9 11 12 10 13 11 8 9 9 7 7 7 6 5 5 6 5 5 5 5 4 4 3 1
16 14 15 13 12 13 13 9 7 6 3 4 3 2 6 8 8 7 6 8 10 9 11 11 12 11 10 11 13 7 8 10 10 9 6 6 5 5 3 4 5 4 4 3
16 15 15 14 12 12 11 10 6 5 5 5 4 6 6 3 5 6 6 7 11 9 6 3 5 8 8 8 9 8 9 9 9 8 8 5 5 5 5 5 4 3 3 3
14 14 15 14 14 11 8 8 5 5 4 8 8 6 4 6 6 6 6 7 2 7 6 5 3 4 5 4 5 9 8 7 6 3 4 4 4 5 5 4 4 4 4 4
13 14 13 13 10 5 4 6 5 3 3 3 6 10 10 5 2 3 4 5 4 5 4 3 8 6 7 5 4 4 4 4 6 6 6 6 6 7 7 6 6 5 4 4
14 12 11 11 9 8 6 7 3 4 3 3 7 9 5 2 1 3 3 4 5 1 2 4 2 7 5 3 5 6 7 5 6 9 9 8 6 6 5 6 6 5 2 1
13 13 11 11 12 10 11 9 7 6 6 4 7 8 10 8 6 7 7 7 9 7 8 12 14 13 9 6 5 7 8 7 7 8 9 8 7 8 6 3 3 4 4 4
14 11 10 14 11 10 10 10 9 11 9 10 11 11 10 10 9 10 11 13 14 13 11 10 12 12 12 12 12 11 11 11 11 7 6 6 8 4 8 8 5 3 4 4
11 15 10 10 11 10 10 11 11 11 11 9 10 10 10 11 12 13 14 12 12 12 11 12 12 14 12 14 13 12 10 10 12 9 7 7 7 4 5 5 4 4 4 4
Wind_Direction
229 236 232 205 194 196 200 182 167 254 258 241 232 266 281 297 186 209 244 130 127 114 96 83 83 92 101 98 93 89 80 82 74 70 68 63 91 85 88 85 88 100 117 89
285 246 190 202 212 220 211 185 256 265 284 210 204 242 274 297 304 268 192 198 182 154 124 103 93 93 95 97 89 89 84 86 90 94 82 73 65 97 122 123 122 118 99 117
256 6 114 304 217 205 204 201 168 213 232 217 213 231 251 270 301 283 207 195 198 164 167 133 130 119 111 105 109 101 103 137 170 167 157 158 160 163 172 170 165 153 119 165
222 66 241 240 270 175 190 210 208 234 232 231 228 210 215 223 261 289 211 170 155 155 154 118 109 117 118 131 125 126 153 190 186 188 182 158 160 179 175 166 204 194 210 211
168 188 287 280 195 186 172 261 205 208 228 223 112 118 273 221 207 234 180 145 161 162 156 133 160 153 143 162 175 180 207 209 216 183 185 176 211 189 172 159 202 213 216 219
138 198 231 233 215 141 106 295 211 187 209 189 143 184 259 204 187 184 182 169 163 154 150 162 167 172 167 191 208 233 226 208 189 183 181 194 209 208 170 184 220 225 244 227
190 229 277 230 147 141 119 236 196 184 199 157 184 204 214 171 185 194 189 195 171 161 193 180 163 177 225 244 245 242 225 209 188 197 190 204 198 180 184 218 224 232 242 242
169 197 277 151 104 170 213 206 186 186 196 186 204 164 185 184 187 198 204 196 182 176 195 191 182 189 234 234 240 233 229 205 204 193 198 194 196 204 218 211 218 240 242 265
175 212 226 190 190 219 177 174 195 177 196 198 174 189 187 193 192 206 205 199 197 196 217 238 219 203 230 250 255 237 216 211 202 188 186 179 177 199 201 191 194 225 212 229
103 249 230 222 259 216 199 209 192 195 185 166 185 182 189 185 194 200 211 210 203 189 216 241 225 214 227 263 282 167 161 169 168 155 173 183 181 178 188 196 212 230 230 237
245 287 286 274 241 225 219 222 188 206 180 191 189 185 186 191 192 200 206 213 198 211 223 238 229 226 228 230 206 201 175 176 178 179 175 194 209 198 205 220 194 209 220 212
270 301 287 263 232 224 217 228 212 194 195 199 187 191 181 199 197 193 198 202 202 210 212 236 222 229 226 212 180 199 191 191 197 191 209 210 218 264 231 236 239 235 240 198
296 309 289 257 276 239 224 226 213 194 206 186 206 193 182 193 197 202 197 194 206 209 212 225 217 228 211 201 183 195 201 202 204 210 211 210 214 217 261 262 237 249 231 220
324 322 321 255 248 235 216 222 194 203 210 193 194 185 188 199 190 195 202 208 205 211 207 211 210 222 216 189 192 203 209 206 196 210 212 207 212 225 218 226 240 256 237 227
338 346 334 335 345 300 255 174 184 198 205 201 182 194 187 190 201 208 213 212 197 202 219 203 207 228 212 189 196 201 203 217 208 211 205 211 209 227 227 229 233 246 258 240
346 338 343 358 344 353 339 268 231 217 203 200 182 188 199 201 206 211 193 172 164 211 211 208 210 223 205 187 198 203 208 221 209 205 225 215 208 213 227 222 228 239 234 238
328 350 343 339 334 336 322 321 242 229 205 187 199 195 180 192 194 196 206 193 207 218 207 195 213 209 200 188 190 208 211 216 202 202 199 210 214 211 220 206 225 230 235 240
302 279 303 317 314 312 312 316 318 231 206 205 179 178 185 178 205 214 219 208 215 235 224 218 219 203 200 199 196 199 201 203 190 202 202 202 215 207 206 213 225 232 249 250
316 316 304 301 302 296 300 308 309 296 216 157 155 186 193 203 199 212 217 198 208 217 232 209 212 214 205 206 194 189 190 192 193 197 198 202 209 217 219 223 235 235 246 15
312 302 297 295 294 294 296 288 302 332 61 59 251 158 214 209 206 224 217 227 221 224 229 208 195 206 210 212 197 193 202 202 202 207 197 200 205 204 166 149 141 143 154 148
302 307 296 289 282 276 276 283 285 311 351 359 311 267 243 246 198 213 224 241 251 232 235 275 255 213 209 203 178 195 197 199 204 206 203 189 154 160 170 168 161 164 163 164
317 316 310 303 289 264 262 280 275 290 357 2 335 283 268 240 210 228 226 226 252 206 193 153 179 252 285 267 199 196 200 206 212 181 143 140 126 105 94 91 72 44 19 4
315 309 309 317 333 274 241 253 245 264 348 283 321 324 279 269 217 210 271 280 245 213 199 188 148 187 224 188 215 179 151 153 141 123 121 124 127 127 122 108 94 82 65 43
338 331 321 332 337 3 16 357 24 234 214 261 306 284 266 294 231 216 233 288 280 182 26 6 50 122 182 159 139 148 123 122 127 120 112 99 94 91 92 108 111 118 119 15
352 343 336 13 20 12 12 15 24 22 46 57 38 30 37 29 41 25 21 35 28 50 63 45 42 43 48 43 65 79 83 87 84 86 88 90 100 111 106 91 5 53 72 75
4 7 30 31 27 15 22 27 36 29 36 40 32 22 41 39 45 50 45 42 47 38 47 50 57 61 65 59 55 50 72 71 64 58 58 78 77 44 91 86 92 85 68 62
13 19 21 28 25 23 25 31 39 33 31 41 50 37 42 48 50 56 57 56 56 57 51 56 60 61 67 69 66 58 38 53 64 69 60 61 74 60 65 78 75 63 54 50